[Iaude] MPEC F27: 2024 FO [a=1.81,e=0.52,i=4.9,H=25.5]

mpec at cfa.harvard.edu mpec at cfa.harvard.edu
Tue Mar 19 07:52:39 EDT 2024


M.P.E.C. 2024-F27                                Issued 2024 March 19, 11:51 UT

     The Minor Planet Electronic Circulars contain information on unusual
         minor planets, routine data on comets and natural satellites,
         and occasional editorial announcements.  They are published
    on behalf of Division F of the International Astronomical Union by the
          Minor Planet Center, Smithsonian Astrophysical Observatory,
                          Cambridge, MA 02138, U.S.A.
			  
             Prepared using the Tamkin Foundation Computer Network

                              MPC at CFA.HARVARD.EDU
            URL https://www.minorplanetcenter.net/    ISSN 1523-6714

                                    2024 FO                                     


Observations:
     K24F00O*1C2024 03 17.22618110 12 19.328-10 46 04.55         18.07GVEF027703
     K24F00O 1C2024 03 17.22847810 12 23.810-10 46 29.24         18.52GVEF027703
     K24F00O 1C2024 03 17.23077610 12 28.343-10 46 54.66         18.27GVEF027703
     K24F00O 1C2024 03 17.23307610 12 32.879-10 47 19.64         18.45GVEF027703
     K24F00O 1C2024 03 17.29022210 14 23.701-10 57 30.74         18.62GVEF027703
     K24F00O 1C2024 03 17.29046010 14 24.083-10 57 33.66         18.52GVEF027703
     K24F00O 1C2024 03 17.29069910 14 24.605-10 57 35.71         18.30GVEF027703
     K24F00O 1C2024 03 17.29093610 14 25.055-10 57 38.52         18.46GVEF027703
     K24F00O  C2024 03 18.09724210 37 58.00 -12 48 54.7                WEF027X09
     K24F00O  C2024 03 18.10192510 38 04.42 -12 49 29.0                WEF027X09
     K24F00O KB2024 03 18.45774 10 46 20.65 -13 32 52.9          19.6 GXEF027Q06
     K24F00O KB2024 03 18.46348 10 46 27.65 -13 33 27.2          18.7 GXEF027Q06
     K24F00O KB2024 03 18.46923 10 46 34.61 -13 34 02.8          18.2 GXEF027Q06
     K24F00O KC2024 03 18.83206010 53 49.922-14 07 18.88         18.2 GXEF027L34
     K24F00O KC2024 03 18.88924 10 54 46.86 -14 12 34.2          19.2 VqEF027L04
     K24F00O KC2024 03 18.89459 10 54 52.41 -14 13 00.5          19.2 VqEF027L04
     K24F00O KC2024 03 18.90338010 55 03.739-14 13 19.42         18.7 GXEF027L34
     K24F00O KC2024 03 18.90561 10 55 03.70 -14 13 54.2          19.3 VqEF027L04
     K24F00O KC2024 03 18.97216 10 56 14.34 -14 19 11.8          19.0 GVEF027204
     K24F00O KC2024 03 18.98240 10 56 24.60 -14 19 59.6                VEF027204
     K24F00O KC2024 03 19.18596411 00 01.25 -14 35 06.7          19.5 GVEF027H21
     K24F00O KC2024 03 19.18876011 00 03.83 -14 35 18.8          19.8 GVEF027H21
     K24F00O KC2024 03 19.19155611 00 06.41 -14 35 30.8          19.7 GVEF027H21

Observer details:
204 Schiaparelli Observatory.  Observer L. Buzzi.  0.84-m f/3.5 reflector +
    CMO.
703 Catalina Sky Survey.  Observer J. K. Hogan.  Measurers T. Beuden, V. F.
    Carvajal, D. Fay, J. B. Fazekas, D. C. Fuls, A. R. Gibbs, A. D. Grauer, H.
    Groeller, J. K. Hogan, R. A. Kowalski, S. M. Larson, G. J. Leonard, D.
    Rankin, R. L. Seaman, F. C. Shelly, K. W. Wierzchos.  0.68-m Schmidt + 10K
    CCD.
H21 Astronomical Research Observatory, Westfield.  Observer R. Holmes.
    Measurers T. Linder, R. Holmes, L. Horn.  0.76-m f/3.0 astrograph + CCD.
L04 ROASTERR-1 Observatory, Cluj-Napoca.  Observer L. Hudin.  0.30-m f/5
    reflector + CCD.
L34 Galhassin Robotic Telescope, Isnello.  Observer A. Nastasi.  0.40-m f/3.8
    400mm Reflector + CCD.
Q06 Tarui Observatory, Tarui.  Observer H. Watanabe.  0.35-m f/1.9 Schmidt-
    Cassegrain + CMO.
X09 Deep Random Survey, Rio Hurtado.  Observers A. Schnabel, D. Ruhela.
    Measurer S. Deen.  0.43-m reflector + CMOS.

Orbital elements:
2024 FO                                                  Earth MOID = 0.0018 AU
Epoch 2024 Mar. 31.0 TT = JDT 2460400.5                 Veres                   
M  21.72711              (2000.0)            P               Q                  
n   0.40348554     Peri.  132.10546     -0.54415141     -0.83887737             
a   1.8137777      Node   350.83193     +0.74244650     -0.47394439             
e   0.5167250      Incl.    4.88377     +0.39073320     -0.26769660             
P   2.44           H   25.57          G   0.15           U   8                  
Residuals in seconds of arc
240317 703  0.2+  0.5-    240318 X09  2.2+  0.7-    240318 L34  0.6+  1.7+
240317 703  0.3-  0.1+    240318 X09  2.3+  1.2-    240318 L04  0.2+  0.2+
240317 703  0.0   0.2-    240318 Q06  0.5-  0.2+    240318 204  0.1-  0.2-
240317 703  0.3+  0.0     240318 Q06  0.2-  1.3+    240318 204  0.2-  0.2-
240317 703  0.5+  0.3+    240318 Q06  0.3-  1.1+    240319 H21  0.1-  0.2-
240317 703  0.6-  0.1-    240318 L34  0.1-  0.2+    240319 H21  0.0   0.1-
240317 703  0.4+  0.3+    240318 L04  0.4+  0.0     240319 H21  0.0   0.1+
240317 703  0.3+  0.0     240318 L04  0.8+  0.0

Ephemeris:
2024 FO                  a,e,i = 1.81, 0.52, 5                   q = 0.8766
Date    TT    R. A. (2000) Decl.     Delta      r    Elong.  Phase     V
2024 02 18    00 44 16.0 +19 04 56   0.1698  0.8899    50.5   121.0    26.4
...
2024 03 04    01 22 00.2 +21 26 09   0.06910 0.9437    44.7   132.3    25.6
...
2024 03 12    03 40 33.4 +21 07 55   0.02040 0.9856    66.2   112.7    21.4
...
2024 03 18    10 35 24.4 -12 38 37   0.02855 1.0216   156.8    22.5    19.0
2024 03 19    10 56 45.8 -14 17 39   0.03449 1.0279   159.3    20.0    19.3
2024 03 20    11 11 58.4 -15 22 22   0.04066 1.0343   160.7    18.6    19.6
...
2024 03 26    11 52 48.4 -17 42 49   0.07986 1.0742   163.1    15.7    21.1
...
2024 04 03    12 10 06.4 -18 07 29   0.1354  1.1306   164.0    14.1    22.3
...
2024 04 18    12 23 47.4 -17 32 31   0.2518  1.2428   159.3    16.6    23.9

M. P. C. Staff               (C) Copyright 2024 MPC           M.P.E.C. 2024-F27





More information about the Iaude mailing list